Columbus, NE

12:35 PM CDT on March 29, 2017 (GMT -0500)
Columbus Municipal

Weather History for KOLU - July, 2013

Change the Weather History Date:

Friday, July 19, 2013

  Actual Average Record
Temperature  
Mean Temperature 82 °F -  
Max Temperature 93 °F 87 °F 105 °F (1983)
Min Temperature 69 °F 66 °F 53 °F (2014)
Cooling Degree Days 17    
Growing Degree Days 32 (Base 50)    
Moisture  
Dew Point 64 °F    
Average Humidity 58    
Maximum Humidity 78    
Minimum Humidity 38    
Precipitation  
Precipitation 0.36 in - - ()
Sea Level Pressure  
Sea Level Pressure 29.95 in    
Wind  
Wind Speed 9 mph (NNW)    
Max Wind Speed 16 mph    
Max Gust Speed 22 mph    
Averages and records for this station are not official NWS values.
T = Trace of Precipitation, MM = Missing Value Source: NWS Daily Summary

Daily Weather History Graph

Daily Weather History Graph

Search for Another Location

Airport or City:

Trip Planner

Search our weather history database for the weather conditions in past years. The results will help you decide how hot, cold, wet, or windy it might be!

Date:

Astronomy

Jul. 19, 2013 Rise Set
Actual Time 6:12 AM CDT 8:58 PM CDT
Civil Twilight 5:39 AM CDT 9:30 PM CDT
Nautical Twilight 4:58 AM CDT 10:11 PM CDT
Astronomical Twilight 4:12 AM CDT 10:58 PM CDT
Moon 6:02 PM CDT (7/19) 2:54 AM CDT (7/19)
Length of Visible Light 15h 51m
Length of Day
14h 46m
Waxing Gibbous, 87% of the Moon is Illuminated
Jul 19
Waxing Gibbous
Jul 22
Full
Jul 29
Last Quarter
Aug 6
New
Aug 14
First Quarter

Hourly Weather History & Observations

Time (CDT) Temp. Heat Index Dew Point Humidity Pressure Visibility Wind Dir Wind Speed Gust Speed Precip Events Conditions
12:15 AM 80.6 °F 82.3 °F 64.4 °F 58% 29.96 in - South 12.7 mph 21.9 mph N/A   Clear
12:35 AM 80.6 °F 81.8 °F 62.6 °F 54% 29.95 in - SSW 16.1 mph 21.9 mph N/A   Clear
12:55 AM 80.6 °F 81.8 °F 62.6 °F 54% 29.95 in - SSW 11.5 mph 20.7 mph N/A   Clear
1:15 AM 78.8 °F - 62.6 °F 57% 29.95 in - SSW 11.5 mph 19.6 mph N/A   Clear
1:35 AM 78.8 °F - 62.6 °F 57% 29.95 in - SSW 11.5 mph - N/A   Clear
1:55 AM 78.8 °F - 62.6 °F 57% 29.95 in - SSW 11.5 mph - N/A   Clear
2:15 AM 78.8 °F - 62.6 °F 57% 29.94 in - SSW 9.2 mph 17.3 mph N/A   Clear
2:35 AM 78.8 °F - 62.6 °F 57% 29.94 in - SSW 10.4 mph 19.6 mph N/A   Clear
2:55 AM 78.8 °F - 62.6 °F 57% 29.94 in - SSW 8.1 mph - N/A   Clear
3:15 AM 78.8 °F - 62.6 °F 57% 29.94 in - SW 11.5 mph - N/A   Clear
3:35 AM 78.8 °F - 62.6 °F 57% 29.94 in - SW 11.5 mph - N/A   Clear
3:55 AM 78.8 °F - 62.6 °F 57% 29.93 in - SW 9.2 mph - N/A   Clear
4:15 AM 77.0 °F - 62.6 °F 61% 29.93 in - SW 10.4 mph - N/A   Clear
4:35 AM 75.2 °F - 62.6 °F 65% 29.93 in - SW 9.2 mph - N/A   Clear
4:55 AM 75.2 °F - 60.8 °F 61% 29.93 in - SW 9.2 mph - N/A   Clear
5:15 AM 75.2 °F - 60.8 °F 61% 29.92 in - SW 6.9 mph - N/A   Clear
5:35 AM 75.2 °F - 60.8 °F 61% 29.92 in - SW 6.9 mph - N/A   Clear
5:55 AM 75.2 °F - 60.8 °F 61% 29.92 in - SW 5.8 mph - N/A Thunderstorm Thunderstorm
6:15 AM 73.4 °F - 60.8 °F 65% 29.94 in - West 6.9 mph - N/A Thunderstorm Thunderstorm
6:35 AM 73.4 °F - 62.6 °F 69% 29.94 in - West 9.2 mph - N/A Thunderstorm Thunderstorm
6:55 AM 73.4 °F - 62.6 °F 69% 29.92 in - WSW 10.4 mph - 0.01 in Thunderstorm Thunderstorm
7:15 AM 73.4 °F - 62.6 °F 69% 29.93 in - WSW 11.5 mph 17.3 mph N/A Thunderstorm Thunderstorm
7:35 AM 71.6 °F - 64.4 °F 78% 29.93 in - West 12.7 mph - 0.10 in Thunderstorm Thunderstorm
7:55 AM 71.6 °F - 62.6 °F 73% 29.94 in - West 10.4 mph - 0.34 in Thunderstorm Thunderstorm
8:15 AM 71.6 °F - 64.4 °F 78% 29.94 in - West 3.5 mph - 0.01 in   Partly Cloudy
8:35 AM 75.2 °F - 66.2 °F 73% 29.94 in - Calm Calm - 0.01 in   Clear
8:55 AM 77.0 °F - 68.0 °F 74% 29.94 in - NW 5.8 mph - 0.01 in   Clear
9:15 AM 80.6 °F 83.9 °F 69.8 °F 70% 29.96 in - West 5.8 mph - N/A   Clear
9:35 AM 80.6 °F 83.2 °F 68.0 °F 65% 29.96 in - West 6.9 mph - N/A   Clear
9:55 AM 82.4 °F 86.3 °F 69.8 °F 66% 29.96 in - WNW 4.6 mph - N/A   Clear
10:15 AM 82.4 °F 86.3 °F 69.8 °F 66% 29.96 in - NNW 5.8 mph - N/A   Clear
10:35 AM 82.4 °F 86.3 °F 69.8 °F 66% 29.96 in - NNE 4.6 mph - N/A   Clear
10:55 AM 86.0 °F 90.4 °F 69.8 °F 58% 29.96 in - NE 8.1 mph - N/A   Clear
11:15 AM 87.8 °F 92.6 °F 69.8 °F 55% 29.97 in - NE 8.1 mph - N/A   Clear
11:35 AM 86.0 °F 90.4 °F 69.8 °F 58% 29.98 in - ENE 9.2 mph - N/A   Clear
11:55 AM 86.0 °F 90.4 °F 69.8 °F 58% 29.98 in - East 9.2 mph - N/A   Clear
12:15 PM 86.0 °F 90.4 °F 69.8 °F 58% 29.97 in - ENE 9.2 mph - N/A   Partly Cloudy
12:35 PM 87.8 °F 92.6 °F 69.8 °F 55% 29.97 in - East 6.9 mph - N/A   Partly Cloudy
12:55 PM 87.8 °F 92.6 °F 69.8 °F 55% 29.97 in - East 8.1 mph - N/A   Scattered Clouds
1:15 PM 86.0 °F 88.2 °F 66.2 °F 51% 29.97 in - East 6.9 mph - N/A   Partly Cloudy
1:35 PM 89.6 °F 92.2 °F 66.2 °F 46% 29.97 in - East 3.5 mph - N/A   Partly Cloudy
1:55 PM 91.4 °F 94.0 °F 66.2 °F 43% 29.97 in - East 5.8 mph - N/A   Clear
2:15 PM 91.4 °F 93.2 °F 64.4 °F 41% 29.96 in - ESE 3.5 mph - N/A   Clear
2:35 PM 91.4 °F 94.0 °F 66.2 °F 43% 29.96 in - NE 5.8 mph - N/A   Clear
2:55 PM 93.2 °F 94.9 °F 64.4 °F 38% 29.96 in - NNE 9.2 mph - N/A   Clear
3:15 PM 89.6 °F 91.1 °F 64.4 °F 43% 29.96 in - North 4.6 mph - N/A   Clear
3:35 PM 91.4 °F 93.2 °F 64.4 °F 41% 29.96 in - North 8.1 mph - N/A   Clear
3:55 PM 91.4 °F 93.2 °F 64.4 °F 41% 29.96 in - North 5.8 mph - N/A   Clear
4:15 PM 91.4 °F 92.1 °F 62.6 °F 38% 29.96 in - NNW 6.9 mph - N/A   Clear
4:35 PM 91.4 °F 93.2 °F 64.4 °F 41% 29.96 in - NNE 5.8 mph - N/A   Clear
4:55 PM 91.4 °F 92.1 °F 62.6 °F 38% 29.95 in - NNE 6.9 mph - N/A   Clear
5:15 PM 91.4 °F 94.0 °F 66.2 °F 43% 29.95 in - NNE 6.9 mph - N/A   Clear
5:35 PM 89.6 °F 91.1 °F 64.4 °F 43% 29.94 in - NE 6.9 mph - N/A   Clear
5:55 PM 91.4 °F 93.2 °F 64.4 °F 41% 29.94 in - NNE 6.9 mph - N/A   Partly Cloudy
6:15 PM 89.6 °F 92.2 °F 66.2 °F 46% 29.94 in - NNE 6.9 mph - N/A   Partly Cloudy
6:35 PM 89.6 °F 92.2 °F 66.2 °F 46% 29.94 in - NNE 4.6 mph - N/A   Clear
6:55 PM 89.6 °F 91.1 °F 64.4 °F 43% 29.93 in - NNE 4.6 mph - N/A   Clear
7:15 PM 86.0 °F 87.3 °F 64.4 °F 48% 29.92 in - North 6.9 mph - N/A   Clear
7:35 PM 84.2 °F 85.0 °F 62.6 °F 48% 29.93 in - North 6.9 mph - N/A   Clear
7:55 PM 82.4 °F 82.9 °F 60.8 °F 48% 29.93 in - North 5.8 mph - N/A   Clear
8:15 PM 80.6 °F 81.8 °F 62.6 °F 54% 29.94 in - North 4.6 mph - N/A   Clear
8:35 PM 77.0 °F - 60.8 °F 57% 29.94 in - North 4.6 mph - N/A   Clear
8:55 PM 73.4 °F - 62.6 °F 69% 29.94 in - Calm Calm - N/A   Clear
9:15 PM 73.4 °F - 62.6 °F 69% 29.95 in - NW 6.9 mph - N/A   Clear
9:35 PM 71.6 °F - 60.8 °F 69% 29.94 in - NNE 5.8 mph - N/A   Clear
9:55 PM 71.6 °F - 62.6 °F 73% 29.95 in - NNE 3.5 mph - N/A   Clear
10:15 PM 71.6 °F - 62.6 °F 73% 29.95 in - ENE 3.5 mph - N/A   Clear
10:35 PM 71.6 °F - 62.6 °F 73% 29.96 in - Calm Calm - N/A   Clear
10:55 PM 71.6 °F - 60.8 °F 69% 29.96 in - Calm Calm - N/A   Clear
11:15 PM 71.6 °F - 60.8 °F 69% 29.97 in - Calm Calm - N/A   Clear
11:35 PM 71.6 °F - 60.8 °F 69% 29.97 in - Calm Calm - N/A   Clear
11:55 PM 69.8 °F - 59.0 °F 68% 29.98 in - NE 4.6 mph - N/A   Clear